TIANLIAN 2-01

Last updated on Sat Jun 14 2025 00:02:47 GMT+0000 (Coordinated Universal Time)

1 44076U 19017A 25164.62881471 -.00000092 00000+0 00000+0 0 9994 2 44076 0.2053 93.9118 0001547 343.9287 127.7692 1.00272421 22958
UTC large
Height (km)
Speed (km/s)
/
Latitude / Longitude
Inclination (degrees)
Orbital Period (minutes)
Azimuth
Elevation
Range (km)
Doppler Factor

Next 0 passes for location: London (51.5072 / 0.1276)

Sorry there are no passes over London.